Location: Starry Hill Observatory
(46.8582°N, 122.3590°W)
Time: 20:39:18
(UTC-07:00)

ISS - Visible Passes

Search period start: 25 September 2016 00:00
Search period end: 05 October 2016 00:00
Orbit: 401 x 409 km, 51.6° (Epoch: 26 September)

Date Brightness Start Highest point End Pass type
(mag) Time Alt. Az. Time Alt. Az. Time Alt. Az.
28 Sep -1.3 20:48:18 10° SSW 20:49:30 19° SSW 20:49:30 19° SSW visible
29 Sep -2.0 19:56:47 10° SSW 19:59:23 22° SE 20:00:03 21° ESE visible
29 Sep -0.3 21:32:22 10° WSW 21:32:45 13° WSW 21:32:45 13° WSW visible
30 Sep -3.2 20:40:14 10° WSW 20:43:07 65° SSW 20:43:07 65° SSW visible
01 Oct -3.0 19:48:17 10° SW 19:51:25 45° SE 19:53:21 20° E visible
01 Oct -0.7 21:24:46 10° W 21:26:01 20° W 21:26:01 20° W visible
02 Oct -3.0 20:32:28 10° WSW 20:35:42 61° NNW 20:36:06 54° NNE visible
03 Oct -3.4 19:40:15 10° WSW 19:43:30 89° SSW 19:46:06 15° ENE visible
03 Oct -0.8 21:17:12 10° WNW 21:18:46 23° WNW 21:18:46 23° WNW visible
04 Oct -2.4 20:24:50 10° W 20:27:57 41° NNW 20:28:40 35° NNE visible
